• Join FlightAware (Why Join?)
  • Login
  • US Flag 
10:01PM EST


 

Airport Tracker/Info


-or-


 

Live Flight TrackerFlight Track Log ✈ BJS439 ✈ 14-Apr-2013 ✈ KMTN - KOXC

Flight Track Log - Related Links

Times and Time Zones

All times are in EDT time to prevent confusion due to time zone crossing. See the BJS439 flight status page for this flight to view local times or setup timezone preferences in your user account.

Time Position Orientation Groundspeed Altitude Reporting Facility
EDT Latitude Longitude Course Direction KTS MPH feet Rate Location/Type
08:12AM 39.3333 -76.4333 201° Southwest 165 190 1,200  Level Potomac TRACON
08:13AM 39.3000 -76.4500 201° Southwest 205 236 3,200 2,856 Climbing Potomac TRACON
08:15AM 39.2028 -76.3361 138° Southeast 237 273 10,100 3,547 Climbing Washington Center
08:17AM 39.1897 -76.0575 93° East 347 399 17,800 4,000 Climbing Washington Center
08:18AM 39.1817 -75.9022 94° East 404 465 22,100 2,550 Climbing Washington Center
08:19AM 39.1697 -75.7308 95° East 445 512 22,900 450 Climbing Washington Center
08:20AM 39.1550 -75.5542 96° East 479 551 23,000 50 Climbing Washington Center
08:21AM 39.1425 -75.3775 95° East 492 566 23,000 350 Level Washington Center
08:22AM 39.1356 -75.2036 93° East 497 572 23,700 1,600 Climbing Washington Center
08:23AM 39.1914 -75.0372 67° East 486 559 26,200 1,600 Climbing Washington Center
08:24AM 39.2550 -74.8733 63° Northeast 498 573 26,900 200 Climbing Washington Center
08:25AM 39.3164 -74.7064 65° Northeast 504 580 26,600 -1,642 Descending Washington Center
08:27AM 39.4556 -74.3228 65° Northeast 505 581 21,400 -1,663 Descending New York Center
08:28AM 39.5122 -74.1722 64° Northeast 480 552 21,000 -197 Descending New York Center
08:29AM 39.5867 -74.0411 54° Northeast 460 529 21,000 -700 Level New York Center
08:30AM 39.6753 -73.9292 44° Northeast 448 516 19,600 -1,438 Descending New York Center
08:31AM 39.7636 -73.8197 44° Northeast 437 503 18,100 -1,279 Descending New York Center
08:32AM 39.8478 -73.7072 46° Northeast 431 496 17,000 -559 Descending New York Center
08:33AM 39.9278 -73.5969 47° Northeast 420 483 17,000  Level New York Center
08:34AM 40.0050 -73.4969 45° Northeast 420 483 17,000 -689 Level New York Center
08:36AM 40.0889 -73.1886 70° East 441 507 14,900 -1,525 Descending Boston Center
08:38AM 40.2333 -73.0167 42° Northeast 362 417 11,000 -1,467 Descending New York TRACON
08:39AM 40.3333 -72.9333 32° Northeast 363 418 10,500 -700 Descending New York TRACON
08:40AM 40.4000 -72.9000 21° North 307 353 9,600 -1,500 Descending New York TRACON
08:41AM 40.4833 -72.8667 17° North 279 321 7,500 -1,773 Descending New York TRACON
08:42AM 40.5667 -72.8833 351° North 259 298 5,700 -1,316 Descending New York TRACON
08:43AM 40.6167 -72.9000 346° North 259 298 5,000 -421 Descending New York TRACON
08:44AM 40.7000 -72.9333 343° North 253 291 4,900 -425 Descending New York TRACON
08:45AM 40.7667 -72.9500 349° North 258 297 4,100 -446 Descending New York TRACON
08:46AM 40.8333 -72.9667 349° North 259 298 4,000 -300 Descending New York TRACON
08:47AM 40.9000 -72.9833 349° North 256 295 3,500 -500 Descending New York TRACON
08:48AM 40.9833 -73.0000 351° North 256 295 3,000 -250 Descending New York TRACON
08:49AM 41.0500 -73.0167 349° North 254 292 3,000  Level New York TRACON
08:50AM 41.1167 -73.0333 349° North 251 289 3,000  Level New York TRACON
08:51AM 41.1667 -73.0833 323° Northwest 240 276 3,000  Level New York TRACON
08:52AM 41.2333 -73.1500 323° Northwest 240 276 3,000  Level New York TRACON
08:53AM 41.2833 -73.1667 346° North 221 254 3,000 -95 Level New York TRACON
08:54AM 41.3500 -73.1500 11° North 201 231 2,800 -545 Descending New York TRACON
08:55AM 41.3833 -73.1000 48° Northeast 205 236 1,900 -982 Descending New York TRACON
08:57AM 41.4667 -73.1333 349° North  Level FlightAware Approximate
09:04AM 41.4786 -73.1352 349° North  Level Estimated